Location: Rio Negrinho
(26.2394°S, 49.4999°W)
Time: 12:34:25
(UTC+00:00)

NOAA 6 - Pass Details

Date: 05 October 2020
Orbit: 773 x 786 km, 98.7° (Epoch: 26 October)

Event Time Altitude Azimuth Distance (km) Brightness Sun altitude
Rises 08:08:59 0° 25° (NNE) 3,252 7.4 -10.5°
Reaches altitude 10° 08:11:20 10° 29° (NNE) 2,329 6.7 -10.0°
Maximum altitude 08:16:20 55° 105° (ESE) 942 4.9 -8.9°
Drops below altitude 10° 08:21:22 10° 182° (S) 2,347 6.6 -7.8°
Sets 08:23:44 0° 186° (S) 3,279 7.3 -7.3°
